Content
SEND FEEDBACK

Daily
Averages
Monthly
Summary
United States of America

VINCENNES, INDIANA


Home > North America > United States > Indiana
Elevation: 426 feet     Latitude: 38 50N     Longitude: 087 30W

WEATHER
 
SELECT A DAY
Number of Records: 191,200;   Date Range: 9/18/96 - 7/29/14
 
SHARE

PRINT THIS DATA

[ ← Previous Day ]
WEATHER ALMANAC - JANUARY 31, 2013
[ Next Day → ]
[ °C ]   °F
Weather ElementAverageHighLow
Temperature23.8 °F33.1 °F (2:53 pm)10.4 °F (11:59 pm)
Dewpoint15.5 °F26.6 °F (5:00 pm)1.4 °F (11:59 pm)
Humidity71.5 %93 % (5:00 pm)54 % (12:53 pm)
Barometer30.07 in30.32 in (11:53 pm)29.88 in (1:53 am)
Wind Speed19.8 mph31.1 mph (6:25 pm)
Wind Gust38 mph (6:09 pm)
Weather ElementAverage
Visibility4.6 mi
Wind DirectionWNW (296.2 °)

Weather ElementTotal
Precipitation---
Heating Degree Days43.3 (Base 65)
Averaged from 42 records on January 31, 2013
WEATHER CONDITIONS BREAKOUT
WIND DIRECTION BREAKOUT
WEATHER BY HOUR - JANUARY 31, 2013
[ °C ]   °F
Local TimeTemperatureDewpointHumidityBarometerVisibilityWind DirectionWind SpeedGust SpeedPrecipitationEventsConditions
1:53 AM28.9 °F18.0 °F64 %29.88 in10.0 miWest (270°)17.3 mph25.3 mphOvercast
2:53 AM28.9 °F17.1 °F61 %29.91 in5.0 miWest (280°)23.0 mph34.5 mph0.00 inSnowLight Snow
3:53 AM27.0 °F16.0 °F63 %29.92 in9.0 miWNW (290°)20.7 mph31.1 mph0.00 inOvercast
4:53 AM26.1 °F12.9 °F58 %29.94 in10.0 miNW (310°)16.1 mphOvercast
5:53 AM27.0 °F14.0 °F58 %29.95 in10.0 miWest (270°)8.1 mphOvercast
6:53 AM27.0 °F17.1 °F66 %29.96 in9.0 miWest (270°)11.5 mph0.00 inOvercast
7:53 AM28.0 °F17.1 °F63 %29.99 in10.0 miWest (270°)13.8 mphMostly Cloudy
8:53 AM28.9 °F18.0 °F64 %30.00 in8.0 miWSW (250°)18.4 mph26.5 mphOvercast
9:53 AM30.0 °F16.0 °F56 %30.02 in9.0 miWest (280°)17.3 mph23.0 mph0.00 inOvercast
10:53 AM30.0 °F17.1 °F59 %30.02 in10.0 miWest (260°)17.3 mphOvercast
11:53 AM32.0 °F18.0 °F56 %30.02 in9.0 miWest (260°)15.0 mphOvercast
12:53 PM32.0 °F17.1 °F54 %30.00 in10.0 miWest (270°)19.6 mph26.5 mphOvercast
1:53 PM32.0 °F19.9 °F61 %30.00 in5.0 miWSW (250°)17.3 mph26.5 mph0.00 inSnowLight Snow
2:53 PM33.1 °F19.0 °F56 %29.99 in9.0 miWest (280°)16.1 mph26.5 mph0.00 inMostly Cloudy
3:53 PM32.0 °F21.9 °F66 %30.00 in6.0 miWest (270°)12.7 mph0.00 inSnowLight Snow
4:06 PM30.2 °F23.0 °F75 %29.99 in1.8 miWest (270°)16.1 mph0.00 inSnowLight Snow
4:50 PM28.4 °F24.8 °F86 %30.00 in0.5 miWNW (290°)13.8 mph0.00 inFog-SnowSnow
4:53 PM28.9 °F26.1 °F89 %30.02 in0.5 miWNW (290°)15.0 mph0.00 inFog-SnowSnow
5:00 PM28.4 °F26.6 °F93 %30.00 in0.5 miWNW (290°)12.7 mph0.00 inFog-SnowSnow
5:05 PM28.4 °F26.6 °F93 %30.00 in0.5 miWNW (300°)20.7 mph24.2 mph0.00 inFog-SnowSnow
5:14 PM28.4 °F24.8 °F86 %30.01 in0.5 miWest (280°)19.6 mph29.9 mph0.00 inFog-SnowSnow
5:50 PM26.6 °F23.0 °F86 %30.03 in0.5 miNW (320°)19.6 mph0.00 inFog-SnowSnow
5:53 PM26.1 °F23.0 °F88 %30.05 in0.5 miNW (310°)20.7 mph0.00 inFog-SnowSnow
6:09 PM23.0 °F19.4 °F86 %30.06 in0.5 miNW (320°)29.9 mph38.0 mph0.00 inFog-SnowSnow
6:17 PM23.0 °F17.6 °F80 %30.07 in0.8 miNW (320°)28.8 mph34.5 mph0.00 inSnowLight Snow
6:25 PM21.2 °F15.8 °F80 %30.07 in0.8 miNW (310°)31.1 mph38.0 mph0.00 inSnowLight Snow
6:40 PM21.2 °F15.8 °F80 %30.09 in1.0 miWNW (300°)24.2 mph35.7 mph0.00 inSnowLight Snow
6:53 PM21.9 °F15.1 °F75 %30.11 in2.5 miNW (320°)25.3 mph31.1 mph0.00 inSnowLight Snow
7:01 PM21.2 °F15.8 °F80 %30.09 in1.2 miNW (320°)26.5 mph33.4 mph0.00 inSnowLight Snow
7:10 PM19.4 °F14.0 °F80 %30.10 in2.0 miNW (310°)25.3 mph29.9 mph0.00 inSnowLight Snow
7:34 PM17.6 °F10.4 °F73 %30.12 in1.8 miNW (310°)27.6 mph35.7 mph0.00 inSnowLight Snow
7:44 PM19.4 °F8.6 °F63 %30.13 in3.0 miNW (310°)24.2 mph0.00 inSnowLight Snow
7:53 PM18.0 °F9.0 °F68 %30.15 in5.0 miNW (320°)21.9 mph29.9 mph0.00 inClear
8:33 PM15.8 °F6.8 °F68 %30.17 in6.0 miNW (320°)19.6 mph28.8 mph0.00 inHaze
8:53 PM17.1 °F7.0 °F65 %30.20 in8.0 miNW (320°)19.6 mph0.00 inOvercast
9:53 PM16.0 °F6.1 °F65 %30.25 in6.0 miWNW (300°)24.2 mph0.00 inSnowLight Snow
10:53 PM15.1 °F7.0 °F70 %30.27 in7.0 miNW (310°)17.3 mph0.00 inSnowLight Snow
11:05 PM14.0 °F8.6 °F79 %30.26 in2.5 miNNW (330°)19.6 mph26.5 mph0.00 inSnowLight Snow
11:08 PM14.0 °F8.6 °F79 %30.27 in1.8 miNNW (340°)21.9 mph26.5 mph0.00 inSnowLight Snow
11:35 PM12.2 °F5.0 °F73 %30.29 in2.0 miNW (320°)20.7 mph28.8 mph0.00 inSnowLight Snow
11:53 PM12.0 °F3.9 °F70 %30.32 in2.5 miNW (320°)21.9 mph27.6 mph0.00 inSnowLight Snow
11:59 PM10.4 °F1.4 °F67 %30.30 in5.0 miNW (310°)19.6 mph27.6 mph0.00 inSnowLight Snow
Hourly data recorded from KLWV, located miles away from Vincennes, Indiana







STORIES FROM OUR PARTNERS